Weather History for Pompano Beach, FL

Change the Weather History Date:

Friday, May 24, 2013

  Actual Average Record
Temperature  
Mean Temperature 82 °F -  
Max Temperature 89 °F 87 °F 94 °F (1980)
Min Temperature 75 °F 70 °F 60 °F (1956)
Cooling Degree Days 16    
Growing Degree Days 32 (Base 50)    
Moisture  
Dew Point 74 °F    
Average Humidity 80    
Maximum Humidity 100    
Minimum Humidity 55    
Precipitation  
Precipitation 0.00 in - - ()
Sea Level Pressure  
Sea Level Pressure 30.02 in    
Wind  
Wind Speed 6 mph (ENE)    
Max Wind Speed 13 mph    
Max Gust Speed -    
Visibility 10 miles    
Events      
Averages and records for this station are not official NWS values.
T = Trace of Precipitation, MM = Missing Value Source: NWS Daily Summary

Daily Weather History Graph

Daily Weather History Graph

Search for Another Location

Airport:

Trip Planner

Search our weather history database for the weather conditions in past years. The results will help you decide how hot, cold, wet, or windy it might be!

Date:

Astronomy

May. 24, 2013 Rise Set
Actual Time 6:29 AM EDT 8:04 PM EDT
Civil Twilight 6:04 AM EDT 8:30 PM EDT
Nautical Twilight 5:33 AM EDT 9:00 PM EDT
Astronomical Twilight 5:02 AM EDT 9:32 PM EDT
Moon 7:47 PM EDT (5/24) 5:56 AM EDT (5/24)
Length of Visible Light 14h 25m
Length of Day
13h 34m
Full, 100% of the Moon is Illuminated
May 24
Full
May 25
Full
May 31
Last Quarter
Jun 8
New
Jun 16
First Quarter

Hourly Weather History & Observations

Time (EDT) Temp. Heat Index Dew Point Humidity Pressure Visibility Wind Dir Wind Speed Gust Speed Precip Events Conditions
12:53 AM 81.0 °F 88.6 °F 78.1 °F 91% 30.00 in 10.0 mi SSE 6.9 mph - N/A   Partly Cloudy
1:53 AM 80.1 °F 85.8 °F 77.0 °F 90% 29.98 in 10.0 mi SSE 5.8 mph - N/A   Clear
2:53 AM 79.0 °F - 77.0 °F 94% 29.96 in 10.0 mi Calm Calm - N/A   Clear
3:53 AM 78.1 °F - 75.9 °F 93% 29.96 in 10.0 mi Calm Calm - N/A   Clear
4:53 AM 77.0 °F - 75.9 °F 96% 29.97 in 9.0 mi West 3.5 mph - N/A   Clear
5:53 AM 75.9 °F - 75.9 °F 100% 29.98 in 8.0 mi Calm Calm - N/A   Clear
6:53 AM 75.0 °F - 75.0 °F 100% 30.01 in 9.0 mi West 6.9 mph - N/A   Clear
7:04 AM 75.2 °F - 75.2 °F 100% 30.01 in 9.0 mi West 6.9 mph - N/A   Partly Cloudy
7:53 AM 75.9 °F - 73.0 °F 91% 30.02 in 10.0 mi West 6.9 mph - N/A   Clear
8:53 AM 80.1 °F 83.6 °F 71.1 °F 74% 30.04 in 10.0 mi West 5.8 mph - N/A   Clear
9:53 AM 82.9 °F 87.0 °F 70.0 °F 65% 30.04 in 10.0 mi NNW 6.9 mph - N/A   Clear
10:53 AM 86.0 °F 92.2 °F 72.0 °F 63% 30.05 in 10.0 mi NNW 9.2 mph - N/A   Partly Cloudy
11:53 AM 88.0 °F 92.9 °F 70.0 °F 55% 30.06 in 10.0 mi Variable 4.6 mph - N/A   Scattered Clouds
12:53 PM 86.0 °F 93.8 °F 73.9 °F 67% 30.04 in 10.0 mi ENE 10.4 mph - N/A   Scattered Clouds
1:53 PM 86.0 °F 92.2 °F 72.0 °F 63% 30.03 in 10.0 mi East 12.7 mph - N/A   Scattered Clouds
2:53 PM 87.1 °F 93.6 °F 72.0 °F 61% 30.03 in 10.0 mi ENE 9.2 mph - N/A   Scattered Clouds
3:53 PM 84.9 °F 91.4 °F 73.0 °F 67% 30.02 in 10.0 mi East 12.7 mph - N/A   Scattered Clouds
4:53 PM 84.0 °F 91.9 °F 75.0 °F 74% 30.03 in 10.0 mi ENE 11.5 mph - N/A   Scattered Clouds
5:53 PM 82.9 °F 88.8 °F 73.0 °F 72% 30.03 in 10.0 mi ENE 6.9 mph - 0.00 in   Clear
6:53 PM 82.9 °F 88.8 °F 73.0 °F 72% 30.02 in 10.0 mi NE 6.9 mph - N/A   Clear
7:53 PM 81.0 °F 86.2 °F 73.9 °F 79% 30.03 in 10.0 mi East 5.8 mph - N/A   Clear
8:53 PM 80.1 °F 84.5 °F 73.9 °F 81% 30.04 in 10.0 mi East 5.8 mph - N/A   Clear
9:53 PM 80.1 °F 84.2 °F 73.0 °F 79% 30.06 in 10.0 mi East 5.8 mph - N/A   Clear
10:53 PM 80.1 °F 84.5 °F 73.9 °F 81% 30.07 in 10.0 mi ESE 8.1 mph - N/A   Clear
11:53 PM 80.1 °F 85.1 °F 75.0 °F 85% 30.07 in 10.0 mi ESE 5.8 mph - N/A   Mostly Cloudy